#timestamp,LO_Frequency,Hit,StdDev 
1560574815.4,286046998.9,N
1560574835.2,286046999.2,N
1560574855.1,286046998.2,N
1560574856.0,286046998.2,N
1560574875.8,286047001.0,N
1560574895.9,286046998.5,N
1560574915.7,286046999.9,N
1560574935.5,286047000.7,N
1560574955.4,286047000.0,N
1560574975.2,286047000.1,N
1560574995.0,286047004.0,N
1560574996.0,286047004.0,N
1560575015.8,286047001.3,N
1560575035.6,286047003.2,N
1560575055.5,286047004.2,N
1560575075.2,286047004.0,N
1560575095.1,286047003.7,N
1560575096.0,286047003.7,N
1560575115.8,286047003.1,N
1560575135.7,286047003.6,N
1560575155.5,286047003.8,N
1560575175.3,286047004.2,N
1560575195.2,286047003.9,N
1560575215.0,286047001.4,N
1560575215.9,286047001.4,N
1560575235.7,286047001.8,N
1560575255.6,286047001.9,N
1560575275.5,286047002.8,N
1560575295.4,286046999.7,N
1560575315.2,286047002.4,N
1560575335.0,286047000.2,N
1560575336.0,286047000.2,N
1560575355.8,286047002.8,N
1560575375.6,286047002.1,N
1560575395.5,286047003.7,N
1560575415.3,286047002.1,N
1560575435.1,286047000.2,N
1560575455.9,286047000.1,N
1560575475.7,286047001.5,N
1560575495.6,286047001.9,N
1560575515.4,286047002.2,N
1560575535.2,286047000.0,N
1560575555.1,286047002.2,N
1560575556.0,286047002.2,N
1560575575.8,286047001.5,N
1560575595.7,286047001.5,N
1560575615.5,286046999.8,N
1560575635.3,286047001.8,N
1560575655.2,286047003.2,N
1560575675.9,286047003.9,Y
1560575695.7,286047002.7,P
1560575715.6,286047001.9,P
1560575735.4,286047002.6,P
1560575755.3,286047002.4,Y
1560575775.1,286046998.4,P
1560575776.0,286046998.4,N
1560575795.8,286046997.4,N
1560575815.7,286046996.7,N
1560575835.5,286046999.0,N
1560575855.3,286046999.5,N
1560575875.2,286046999.0,N
1560575895.0,286046998.1,N
1560575895.9,286046998.1,N
1560575915.8,286046997.0,N
1560575935.6,286046999.2,N
1560575955.4,286046998.7,N
1560575975.3,286046996.7,N
1560575995.1,286046997.4,N
1560576015.9,286046999.1,N
1560576035.7,286046999.3,N
1560576055.5,286046998.3,N
1560576075.4,286046999.1,N
1560576095.2,286046998.5,N
1560576115.0,286047000.1,N
1560576115.9,286047000.1,N
1560576135.8,286047000.4,N
1560576155.6,286047002.4,N
1560576175.5,286047000.2,N
1560576195.3,286047000.4,N
1560576215.1,286047002.8,N
1560576235.9,286047000.4,N
1560576255.7,286047000.8,N
1560576275.5,286047000.4,N
1560576295.4,286047000.8,N
1560576315.2,286047000.5,N
1560576335.1,286047001.0,N
1560576336.0,286047001.0,N
1560576355.8,286047000.7,N
1560576375.6,286047000.9,N
1560576395.5,286047001.1,N
1560576415.3,286046999.3,N
1560576435.1,286046998.8,N
1560576455.9,286047000.6,N
1560576475.7,286046999.5,N
1560576495.6,286046999.1,N
1560576515.4,286046997.5,N
1560576535.2,286046994.9,Y
1560576555.1,286046996.4,P
1560576556.0,286046996.4,N
1560576575.8,286046996.2,N
1560576595.6,286046996.2,N
1560576615.5,286046995.2,Y
1560576635.3,286046999.0,P
1560576655.2,286046999.0,N
1560576675.9,286046999.3,N
1560576695.7,286046999.4,N
1560576715.6,286046998.9,N
1560576735.4,286046998.8,N
1560576755.3,286046999.2,N
1560576775.1,286046998.7,N
1560576776.0,286046998.7,N
1560576795.8,286046999.0,N
1560576815.7,286046996.5,Y
1560576835.5,286047001.2,P
1560576855.3,286046999.1,N
1560576875.2,286046998.4,N
1560576895.0,286046998.9,N
1560576895.9,286046998.9,N
1560576915.8,286046998.8,N
1560576935.6,286046998.5,N
1560576955.4,286046998.4,N
1560576975.3,286046998.3,N
1560576995.1,286046998.9,N
1560577015.9,286047000.8,N
1560577035.7,286047001.2,N
1560577055.5,286047001.2,N
1560577075.4,286047000.8,N
1560577095.2,286047000.7,N
1560577115.0,286046999.9,N
1560577115.9,286046999.9,N
1560577135.8,286047000.3,N
1560577155.6,286047002.7,N
1560577175.4,286047000.5,N
1560577195.3,286047002.8,N
1560577215.1,286047002.8,N
1560577235.9,286047000.6,N
1560577255.7,286047000.6,N
1560577275.5,286046999.7,N
1560577295.4,286047002.8,N
1560577315.2,286047000.0,N
1560577335.0,286047002.4,N
1560577335.9,286047002.4,N
1560577355.8,286047002.8,N
1560577375.6,286047000.4,N
1560577395.5,286047000.3,N
1560577415.3,286046998.6,N
1560577435.1,286046996.5,N
1560577455.9,286046998.9,N
1560577475.9,286046998.9,N
1560577496.7,286046999.3,N
1560577515.6,286046998.3,N
1560577535.5,286046998.2,N
1560577555.3,286046998.8,N
1560577575.1,286046999.0,N
1560577595.9,286046998.7,N
1560577615.7,286046998.3,N
1560577635.6,286046998.4,N
1560577655.4,286046996.6,N
1560577675.2,286046999.1,N
1560577695.1,286047001.1,N
1560577696.0,286047001.1,N
1560577715.8,286046998.3,N
1560577735.7,286046999.1,N
1560577755.5,286046999.1,N
1560577775.3,286047000.1,N
1560577795.2,286046998.8,N
1560577815.0,286046998.7,N
1560577815.9,286046998.7,N
1560577835.7,286046999.4,N
1560577855.6,286047000.5,N
1560577875.4,286047000.9,N
1560577895.3,286046998.9,N
1560577915.1,286046998.4,N
1560577935.8,286046998.5,N
1560577955.7,286047000.0,N
1560577975.5,286047000.3,N
1560577995.4,286047000.1,N
1560578015.2,286047000.7,N
1560578035.0,286047000.8,N
1560578035.9,286047000.8,N
1560578055.8,286047002.3,N
1560578075.6,286047000.4,N
1560578095.4,286046998.2,N
1560578115.3,286047001.1,N
1560578135.1,286046998.2,N
1560578155.9,286047001.0,N
1560578175.7,286046998.1,N
1560578195.5,286046998.3,N
1560578215.4,286047000.9,N
1560578235.2,286047000.6,N
1560578255.0,286046998.1,N
1560578256.0,286046998.1,N
1560578275.8,286047000.7,N
1560578295.6,286046998.2,N
1560578315.5,286046998.1,N
1560578335.3,286047001.2,N
1560578355.1,286046999.7,N
1560578375.9,286047002.4,N
1560578395.7,286047001.5,N
